Location: Climax
(33.2048°N, 96.4497°W)
Time: 20:00:51
(UTC+00:00)

SL-4 R/B - Pass Details

Date: 10 July 2022
Orbit: 425 x 653 km, 51.6° (Epoch: 16 August)

Event Time Altitude Azimuth Distance (km) Brightness Sun altitude
Rises 03:57:46 0° 248° (WSW) 2,372 5.5 -23.6°
Reaches altitude 10° 04:00:01 10° 259° (W) 1,508 4.6 -23.9°
Maximum altitude 04:03:01 30° 323° (NW) 800 3.5 -24.3°
Drops below altitude 10° 04:06:06 10° 26° (NNE) 1,543 4.6 -24.7°
Sets 04:08:25 0° 38° (NE) 2,439 5.5 -24.9°
